#�ϑ�����,���ϕ���,���ϕ���,�ő啗��,�ő啗����������,�ő�u�ԕ���,�ő�u�ԕ�����������
#(�N����),(m/s)   ,(16����),(m/s)   ,(16����)        ,(m/s)       ,(16����)            
2014/3/10 0:01,4.3,16,4.4,16,8.6,15
2014/3/10 0:02,4.2,16,4.2,16,15.1,16
2014/3/10 0:03,4.3,16,4.3,16,15.3,16
2014/3/10 0:04,4.8,16,4.8,16,12.8,14
2014/3/10 0:05,5.2,16,5.2,16,13.9,16
2014/3/10 0:06,5.6,16,5.6,16,8.9,15
2014/3/10 0:07,5.9,16,5.9,16,13.2,16
2014/3/10 0:08,5.9,16,5.9,16,7.8,16
2014/3/10 0:09,5.9,16,5.9,16,6.5,15
2014/3/10 0:10,6,16,6,16,8.4,16
2014/3/10 0:11,6.3,16,6.4,16,10.1,15
2014/3/10 0:12,6.1,16,6.3,16,10.3,16
2014/3/10 0:13,5.9,16,6.1,16,8.6,16
2014/3/10 0:14,5.3,16,5.9,16,6.4,16
2014/3/10 0:15,4.6,16,5.2,16,5.2,16
2014/3/10 0:16,4.7,16,4.7,16,12.2,16
2014/3/10 0:17,4.5,16,4.8,16,11.7,16
2014/3/10 0:18,4.8,16,4.8,16,11.7,16
2014/3/10 0:19,5,16,5,16,11.9,15
2014/3/10 0:20,5.3,16,5.3,16,13.9,15
2014/3/10 0:21,5,16,5.3,16,7.2,2
2014/3/10 0:22,5.2,16,5.2,16,12.7,15
2014/3/10 0:23,5.1,16,5.2,16,8.7,1
2014/3/10 0:24,5.2,16,5.3,16,8.3,2
2014/3/10 0:25,5.7,16,5.7,16,11.8,15
2014/3/10 0:26,5.4,16,5.6,16,10.2,15
2014/3/10 0:27,5.6,16,5.6,16,10.8,16
2014/3/10 0:28,5.5,16,5.6,16,10.7,16
2014/3/10 0:29,5.6,16,5.7,16,13.3,15
2014/3/10 0:30,5.6,16,5.7,16,12.3,16
2014/3/10 0:31,5.9,16,5.9,16,11.9,1
2014/3/10 0:32,5.9,16,5.9,16,11.1,16
2014/3/10 0:33,6.3,16,6.3,16,16.6,15
2014/3/10 0:34,6.8,16,6.8,16,15.3,16
2014/3/10 0:35,6.8,16,6.9,16,12.6,16
2014/3/10 0:36,6.8,16,6.9,16,12.7,2
2014/3/10 0:37,6.9,16,6.9,16,10.5,16
2014/3/10 0:38,7.1,16,7.1,16,11.3,16
2014/3/10 0:39,6.8,16,7,16,13.1,16
2014/3/10 0:40,6.8,16,6.8,16,13,16
2014/3/10 0:41,6.8,16,6.8,16,15.1,1
2014/3/10 0:42,7.1,16,7.1,16,13.9,1
2014/3/10 0:43,7,16,7.3,16,11.5,1
2014/3/10 0:44,6.5,16,7,16,9.7,15
2014/3/10 0:45,6.6,16,6.6,16,11.5,16
2014/3/10 0:46,6.9,16,6.9,16,13.1,1
2014/3/10 0:47,7.1,16,7.1,16,11.7,1
2014/3/10 0:48,6.9,16,7.1,16,13.2,16
2014/3/10 0:49,6.9,16,7,16,13.6,1
2014/3/10 0:50,7.3,16,7.3,16,16,16
2014/3/10 0:51,7.3,16,7.4,16,10.1,14
2014/3/10 0:52,7.5,16,7.5,16,20.7,15
2014/3/10 0:53,7.7,16,7.7,16,14.7,15
2014/3/10 0:54,8.2,16,8.2,16,15.7,16
2014/3/10 0:55,8.2,16,8.3,16,17,16
2014/3/10 0:56,8,16,8.2,16,11.9,1
2014/3/10 0:57,7.8,16,8,16,11.7,15
2014/3/10 0:58,8,16,8,16,16.9,15
2014/3/10 0:59,8,16,8.1,16,13.1,16
2014/3/10 1:00,7.5,16,8,16,11,16
2014/3/10 1:01,7.7,16,7.7,16,17.8,16
2014/3/10 1:02,7.3,16,7.7,16,11.7,14
2014/3/10 1:03,6.9,16,7.2,16,8.4,15
2014/3/10 1:04,6.6,16,6.9,16,13.3,16
2014/3/10 1:05,6.7,16,6.8,16,13.4,16
2014/3/10 1:06,6.7,16,6.8,16,9.8,1
2014/3/10 1:07,6.7,16,6.7,16,13.2,15
2014/3/10 1:08,6.7,16,6.8,16,16.8,15
2014/3/10 1:09,6.4,16,6.6,16,9.3,1
2014/3/10 1:10,6.4,16,6.5,16,9.8,15
2014/3/10 1:11,6,16,6.4,16,8.6,16
2014/3/10 1:12,6.2,16,6.2,16,13.4,15
2014/3/10 1:13,6.4,16,6.4,16,12.7,16
2014/3/10 1:14,6.4,16,6.5,16,10.6,16
2014/3/10 1:15,6.2,16,6.4,16,10.9,14
2014/3/10 1:16,6.2,16,6.2,16,8.1,16
2014/3/10 1:17,6.4,16,6.4,16,17.2,2
2014/3/10 1:18,6.3,16,6.3,16,13.2,16
2014/3/10 1:19,6.3,16,6.3,16,10.1,16
2014/3/10 1:20,6.3,16,6.4,16,11.3,2
2014/3/10 1:21,6.6,16,6.6,16,13.3,15
2014/3/10 1:22,6.3,16,6.6,16,10.2,15
2014/3/10 1:23,6,16,6.3,16,11.1,16
2014/3/10 1:24,5.8,16,6,16,8.7,1
2014/3/10 1:25,5.5,16,5.8,16,8.2,1
2014/3/10 1:26,5.5,16,5.6,16,8.7,1
2014/3/10 1:27,5.4,16,5.5,16,10.8,14
2014/3/10 1:28,5.3,16,5.5,16,9.4,1
2014/3/10 1:29,5.5,16,5.5,16,11.7,16
2014/3/10 1:30,5.4,16,5.5,16,9.7,16
2014/3/10 1:31,5,16,5.4,16,9.4,15
2014/3/10 1:32,5,16,5.1,16,9.8,1
2014/3/10 1:33,5,16,5.2,16,8.7,16
2014/3/10 1:34,5.1,16,5.1,16,8.4,1
2014/3/10 1:35,5.2,16,5.2,16,9.3,1
2014/3/10 1:36,5.1,16,5.2,16,6.8,1
2014/3/10 1:37,5.2,16,5.3,16,13.2,16
2014/3/10 1:38,5.4,16,5.4,16,14.2,1
2014/3/10 1:39,5.3,16,5.4,16,9.8,14
2014/3/10 1:40,5.6,16,5.6,16,13.4,16
2014/3/10 1:41,6,16,6,16,15.7,16
2014/3/10 1:42,6.7,16,6.7,16,17.9,16
2014/3/10 1:43,6.7,16,6.7,16,9.5,1
2014/3/10 1:44,7.1,16,7.1,16,12.5,1
2014/3/10 1:45,7.5,16,7.5,16,16.3,15
2014/3/10 1:46,8.2,16,8.2,16,17.7,16
2014/3/10 1:47,8.1,16,8.3,16,12.4,14
2014/3/10 1:48,7.9,16,8.1,16,9.7,15
2014/3/10 1:49,8,16,8,16,12.2,15
2014/3/10 1:50,7.9,16,8,16,13.4,16
2014/3/10 1:51,7.7,16,7.9,16,12.7,15
2014/3/10 1:52,7.2,16,7.7,16,12.1,1
2014/3/10 1:53,7.6,16,7.6,16,17.1,15
2014/3/10 1:54,7.8,16,7.8,16,16.9,16
2014/3/10 1:55,7.8,16,7.9,16,16.7,16
2014/3/10 1:56,7.7,16,7.8,16,15.6,15
2014/3/10 1:57,7.7,16,7.7,16,12.4,16
2014/3/10 1:58,7.9,16,7.9,16,12.8,16
2014/3/10 1:59,7.8,16,8,16,11,15
2014/3/10 2:00,7.8,16,7.9,16,12.5,15
2014/3/10 2:01,8,16,8,16,12.5,14
2014/3/10 2:02,8.3,16,8.3,16,15.8,16
2014/3/10 2:03,8.1,16,8.3,16,12.2,14
2014/3/10 2:04,7.9,16,8.1,16,14.2,16
2014/3/10 2:05,7.7,16,7.9,16,11.3,16
2014/3/10 2:06,7.2,16,7.6,16,11.5,15
2014/3/10 2:07,7.8,16,7.8,16,18.5,16
2014/3/10 2:08,7.8,16,7.8,16,12.5,16
2014/3/10 2:09,8.1,16,8.1,16,14.7,1
2014/3/10 2:10,8.1,16,8.2,16,12.4,14
2014/3/10 2:11,7.8,16,8,16,12.6,16
2014/3/10 2:12,7.6,16,7.7,16,15.4,16
2014/3/10 2:13,7.8,16,7.8,16,15.2,16
2014/3/10 2:14,7.6,16,7.8,16,13,16
2014/3/10 2:15,7.7,16,7.7,16,14.4,15
2014/3/10 2:16,7.9,16,7.9,16,14,15
2014/3/10 2:17,7.5,16,8,16,14.4,16
2014/3/10 2:18,7.7,16,7.7,16,14.4,16
2014/3/10 2:19,7.3,16,7.6,16,10.5,1
2014/3/10 2:20,7.5,16,7.5,16,14.8,16
2014/3/10 2:21,7.5,16,7.6,16,10.8,16
2014/3/10 2:22,7.1,16,7.5,16,7,16
2014/3/10 2:23,6.7,16,7.1,16,7.1,1
2014/3/10 2:24,6.3,16,6.6,16,5.1,15
2014/3/10 2:25,6.2,16,6.3,16,11,15
2014/3/10 2:26,5.9,16,6.1,16,11.1,15
2014/3/10 2:27,5.6,16,5.9,16,11.3,16
2014/3/10 2:28,5.5,16,5.6,16,10.9,1
2014/3/10 2:29,5.5,16,5.5,16,11.6,16
2014/3/10 2:30,5.2,16,5.4,16,11.5,16
2014/3/10 2:31,5.1,16,5.2,16,8.7,15
2014/3/10 2:32,5.4,16,5.4,16,12.7,16
2014/3/10 2:33,5.6,16,5.6,16,9.9,16
2014/3/10 2:34,6.1,16,6.1,16,12.7,15
2014/3/10 2:35,6.2,16,6.3,16,13.1,16
2014/3/10 2:36,6,16,6.2,16,10.3,16
2014/3/10 2:37,5.9,16,6,16,7.1,15
2014/3/10 2:38,5.8,16,5.9,16,12.5,16
2014/3/10 2:39,5.9,16,6,16,9.1,16
2014/3/10 2:40,5.7,16,5.9,16,8.4,1
2014/3/10 2:41,5.7,16,5.8,16,8.4,14
2014/3/10 2:42,5.2,16,5.7,16,5.4,16
2014/3/10 2:43,5.2,15,5.2,16,10.2,14
2014/3/10 2:44,5,16,5.1,16,10.2,16
2014/3/10 2:45,5,16,5,16,9.4,16
2014/3/10 2:46,5,16,5,16,7.9,15
2014/3/10 2:47,5.1,16,5.1,16,9,15
2014/3/10 2:48,5,16,5.1,16,8.5,15
2014/3/10 2:49,4.7,16,5,16,10,16
2014/3/10 2:50,4.7,16,4.8,16,7.8,1
2014/3/10 2:51,4.9,16,4.9,16,10.2,16
2014/3/10 2:52,5.4,16,5.4,16,12.2,15
2014/3/10 2:53,5.3,16,5.4,16,9.7,16
2014/3/10 2:54,5.2,16,5.4,16,7.4,16
2014/3/10 2:55,4.9,16,5.1,16,7.2,12
2014/3/10 2:56,4.8,15,4.9,16,5.6,13
2014/3/10 2:57,4.7,15,4.8,16,6.4,16
2014/3/10 2:58,4.6,15,4.6,16,5.6,14
2014/3/10 2:59,4.5,15,4.6,16,6.5,16
2014/3/10 3:00,4.5,15,4.5,16,7.2,15
2014/3/10 3:01,4.4,15,4.6,16,7,15
2014/3/10 3:02,4.1,15,4.3,16,9,16
2014/3/10 3:03,4.1,15,4.1,16,8.4,15
2014/3/10 3:04,4.3,15,4.3,16,8.9,1
2014/3/10 3:05,4.4,15,4.4,16,9.1,15
2014/3/10 3:06,4.5,15,4.5,15,7.8,15
2014/3/10 3:07,4.7,15,4.7,15,8.4,16
2014/3/10 3:08,4.8,15,4.8,15,6.8,15
2014/3/10 3:09,4.9,15,4.9,15,6.5,15
2014/3/10 3:10,4.8,15,4.9,15,4.2,14
2014/3/10 3:11,4.7,15,4.7,15,6.9,16
2014/3/10 3:12,4.6,15,4.7,15,7.5,1
2014/3/10 3:13,4.5,15,4.6,15,8.2,16
2014/3/10 3:14,4.4,16,4.6,15,9.2,1
2014/3/10 3:15,4.4,16,4.4,15,7.5,2
2014/3/10 3:16,4.3,16,4.4,15,6.9,16
2014/3/10 3:17,4.2,16,4.3,15,9.4,16
2014/3/10 3:18,4.1,16,4.1,15,8.9,16
2014/3/10 3:19,4,16,4.1,15,8.6,16
2014/3/10 3:20,3.9,16,4,15,4.7,1
2014/3/10 3:21,4.1,16,4.1,15,8.4,16
2014/3/10 3:22,4.1,16,4.1,15,6.7,16
2014/3/10 3:23,3.9,16,4.1,15,6.2,1
2014/3/10 3:24,4.2,16,4.2,16,12.3,16
2014/3/10 3:25,4.3,16,4.3,16,10.8,16
2014/3/10 3:26,4.4,16,4.4,16,6.8,15
2014/3/10 3:27,4.3,16,4.4,16,4.5,13
2014/3/10 3:28,4.3,16,4.4,16,5,16
2014/3/10 3:29,4.2,16,4.3,16,6.7,15
2014/3/10 3:30,4.6,16,4.6,16,9.1,16
2014/3/10 3:31,4.6,16,4.6,16,8.1,16
2014/3/10 3:32,4.6,16,4.6,16,6.2,15
2014/3/10 3:33,4.7,16,4.7,16,7.8,15
2014/3/10 3:34,4.4,16,4.7,16,5.7,16
2014/3/10 3:35,4.2,16,4.3,16,9.4,16
2014/3/10 3:36,4.1,16,4.1,16,5.6,16
2014/3/10 3:37,4,16,4,16,5,16
2014/3/10 3:38,4.2,16,4.2,16,7.6,1
2014/3/10 3:39,4.2,16,4.2,16,5.8,16
2014/3/10 3:40,3.8,16,4.1,16,4.5,1
2014/3/10 3:41,3.6,16,3.8,16,5.6,2
2014/3/10 3:42,3.7,16,3.7,16,6.5,15
2014/3/10 3:43,3.6,16,3.7,16,6.7,16
2014/3/10 3:44,3.5,16,3.6,16,4.9,15
2014/3/10 3:45,3.4,16,3.5,16,5.8,16
2014/3/10 3:46,3.5,16,3.5,16,4.9,1
2014/3/10 3:47,3.4,16,3.5,16,3.6,1
2014/3/10 3:48,3.2,16,3.4,16,5.2,14
2014/3/10 3:49,3,16,3.1,16,3.6,15
2014/3/10 3:50,3,16,3,16,4.8,16
2014/3/10 3:51,3.1,16,3.1,16,4.9,15
2014/3/10 3:52,3,16,3.1,16,6.3,2
2014/3/10 3:53,2.8,1,2.9,16,5.1,2
2014/3/10 3:54,2.8,1,2.8,16,4.8,15
2014/3/10 3:55,2.7,1,2.9,16,6.7,14
2014/3/10 3:56,2.6,1,2.7,16,3.7,16
2014/3/10 3:57,2.5,1,2.6,16,2.6,2
2014/3/10 3:58,2.5,16,2.6,16,5.5,13
2014/3/10 3:59,2.7,1,2.7,16,5.6,16
2014/3/10 4:00,2.8,1,2.9,16,8.9,3
2014/3/10 4:01,2.9,1,2.9,16,7.6,2
2014/3/10 4:02,3,1,3,1,7.7,16
2014/3/10 4:03,3.2,1,3.2,1,9.5,1
2014/3/10 4:04,3.3,1,3.3,1,6.5,1
2014/3/10 4:05,3.5,1,3.5,1,9.9,16
2014/3/10 4:06,3.7,1,3.7,1,9.7,16
2014/3/10 4:07,3.9,1,3.9,1,6.7,3
2014/3/10 4:08,4,1,4,1,9.4,1
2014/3/10 4:09,3.9,1,4,1,5.6,15
2014/3/10 4:10,3.9,1,3.9,1,7.5,15
2014/3/10 4:11,3.8,1,3.9,1,5.4,16
2014/3/10 4:12,3.8,1,3.8,1,6.4,16
2014/3/10 4:13,3.7,1,3.9,1,8.3,16
2014/3/10 4:14,3.6,16,3.7,1,5.5,16
2014/3/10 4:15,3.7,16,3.8,1,7.8,16
2014/3/10 4:16,3.7,16,3.7,1,7.4,1
2014/3/10 4:17,3.7,16,3.7,1,7.2,1
2014/3/10 4:18,3.7,16,3.8,1,5.5,15
2014/3/10 4:19,3.9,16,3.9,1,6.4,15
2014/3/10 4:20,3.7,16,3.9,1,4.8,16
2014/3/10 4:21,3.7,16,3.7,1,3.1,15
2014/3/10 4:22,3.6,16,3.7,1,4.8,15
2014/3/10 4:23,3.5,16,3.6,16,6.3,14
2014/3/10 4:24,3.5,16,3.5,16,4.4,15
2014/3/10 4:25,3.3,16,3.4,16,4.9,16
2014/3/10 4:26,3.1,16,3.3,16,4.2,16
2014/3/10 4:27,2.9,16,3.1,16,3.8,15
2014/3/10 4:28,2.8,16,2.8,16,5.8,2
2014/3/10 4:29,2.7,16,2.8,16,5.5,16
2014/3/10 4:30,2.8,16,2.8,16,6,16
2014/3/10 4:31,2.9,16,2.9,16,4.9,11
2014/3/10 4:32,2.9,16,2.9,16,6.3,2
2014/3/10 4:33,3,16,3,16,7.7,1
2014/3/10 4:34,3.3,16,3.3,16,9.2,16
2014/3/10 4:35,3.4,16,3.4,16,8.1,16
2014/3/10 4:36,3.6,16,3.6,16,6.1,15
2014/3/10 4:37,3.8,16,3.8,16,5.1,15
2014/3/10 4:38,3.8,16,3.9,16,4.3,16
2014/3/10 4:39,3.8,16,3.8,16,4.4,16
2014/3/10 4:40,3.7,16,3.7,16,3.6,16
2014/3/10 4:41,3.7,16,3.7,16,3.9,15
2014/3/10 4:42,3.7,16,3.7,16,6,15
2014/3/10 4:43,3.6,16,3.8,16,5.7,16
2014/3/10 4:44,3.2,16,3.5,16,3.5,15
2014/3/10 4:45,2.9,16,3.2,16,3.7,15
2014/3/10 4:46,2.8,16,2.9,16,3.7,15
2014/3/10 4:47,2.8,16,2.8,16,5.5,1
2014/3/10 4:48,2.6,16,2.7,16,4.3,16
2014/3/10 4:49,2.5,16,2.6,16,4.2,16
2014/3/10 4:50,2.4,16,2.5,16,2.5,15
2014/3/10 4:51,2.4,16,2.4,16,3.7,16
2014/3/10 4:52,2.4,16,2.4,16,5.1,1
2014/3/10 4:53,2.4,16,2.4,16,7.5,15
2014/3/10 4:54,2.3,16,2.4,16,4.1,16
2014/3/10 4:55,2.6,16,2.6,16,7.2,16
2014/3/10 4:56,2.8,16,2.8,16,6.7,1
2014/3/10 4:57,3.1,16,3.1,16,13.2,15
2014/3/10 4:58,3.3,16,3.3,16,6.7,1
2014/3/10 4:59,3.5,16,3.5,16,8.3,13
2014/3/10 5:00,3.7,15,3.7,16,4.9,13
2014/3/10 5:01,3.7,15,3.7,16,4.8,16
2014/3/10 5:02,3.8,15,3.8,15,7.2,16
2014/3/10 5:03,4,15,4,15,8.1,14
2014/3/10 5:04,4.4,15,4.4,15,6.9,15
2014/3/10 5:05,4.3,15,4.4,15,5.7,13
2014/3/10 5:06,4,15,4.3,15,3,14
2014/3/10 5:07,3.5,15,3.9,15,2.7,15
2014/3/10 5:08,3.3,15,3.5,15,2.7,2
2014/3/10 5:09,3.1,15,3.3,15,3.7,2
2014/3/10 5:10,2.8,16,3,15,1.6,4
2014/3/10 5:11,2.8,16,2.8,15,4.3,16
2014/3/10 5:12,2.9,16,2.9,15,7.7,1
2014/3/10 5:13,3,16,3.1,15,9.7,15
2014/3/10 5:14,2.7,16,3,15,6,16
2014/3/10 5:15,2.6,16,2.7,15,3.7,11
2014/3/10 5:16,2.6,16,2.6,15,2.5,15
2014/3/10 5:17,2.6,16,2.6,15,3,16
2014/3/10 5:18,2.6,16,2.7,15,2.5,2
2014/3/10 5:19,2.6,16,2.6,16,3.1,8
2014/3/10 5:20,2.6,15,2.6,16,3.7,9
2014/3/10 5:21,2.5,15,2.6,16,3.6,8
2014/3/10 5:22,2.2,13,2.5,16,3.7,8
2014/3/10 5:23,1.8,12,2.2,16,3.3,9
2014/3/10 5:24,1.6,12,1.8,16,2.2,11
2014/3/10 5:25,1.5,12,1.6,16,1.8,14
2014/3/10 5:26,1.5,13,1.5,16,1.6,12
2014/3/10 5:27,1.4,14,1.4,16,2,1
2014/3/10 5:28,1.3,13,1.4,16,1.8,16
2014/3/10 5:29,1.3,14,1.4,16,1.6,15
2014/3/10 5:30,1.2,13,1.3,15,0.6,11
2014/3/10 5:31,1.1,13,1.2,15,0.6,8
2014/3/10 5:32,1,14,1,13,1,13
2014/3/10 5:33,0.9,14,1,12,1.9,13
2014/3/10 5:34,0.8,14,0.9,12,1.1,13
2014/3/10 5:35,0.8,14,0.8,13,1.4,16
2014/3/10 5:36,0.7,14,0.8,13,1.3,14
2014/3/10 5:37,0.7,13,0.7,14,1.6,14
2014/3/10 5:38,0.8,13,0.8,13,3.5,15
2014/3/10 5:39,0.8,13,0.8,14,2.7,15
2014/3/10 5:40,0.9,13,0.9,13,1.4,13
2014/3/10 5:41,0.9,13,0.9,13,0.8,12
2014/3/10 5:42,0.9,13,0.9,14,0.9,9
2014/3/10 5:43,0.9,12,0.9,14,1.5,10
2014/3/10 5:44,0.8,12,0.9,13,0.5,9
2014/3/10 5:45,0.8,12,0.8,13,0.5,15
2014/3/10 5:46,0.9,12,0.9,13,1.6,13
2014/3/10 5:47,0.9,12,0.9,13,2.1,12
2014/3/10 5:48,0.8,12,0.9,13,1.3,10
2014/3/10 5:49,0.7,11,0.8,13,1.8,11
2014/3/10 5:50,0.9,11,0.9,13,3.2,12
2014/3/10 5:51,1,11,1,11,2.6,16
2014/3/10 5:52,1.1,11,1.1,11,4.5,8
2014/3/10 5:53,1.2,12,1.2,12,4.7,8
2014/3/10 5:54,1.5,12,1.5,12,5.4,11
2014/3/10 5:55,1.8,11,1.8,12,4.7,9
2014/3/10 5:56,2,11,2,11,3.8,11
2014/3/10 5:57,2.1,11,2.1,11,3.9,9
2014/3/10 5:58,2.1,11,2.1,11,2.4,9
2014/3/10 5:59,2.1,11,2.1,11,1.4,12
2014/3/10 6:00,2.1,11,2.1,11,1.9,14
2014/3/10 6:01,2,11,2.1,11,1.9,13
2014/3/10 6:02,1.9,12,2,11,1.4,14
2014/3/10 6:03,1.8,12,1.9,11,1.1,13
2014/3/10 6:04,1.5,12,1.8,11,0.8,14
2014/3/10 6:05,1.2,13,1.5,11,0.5,15
2014/3/10 6:06,1,13,1.2,11,1,12
2014/3/10 6:07,0.9,14,1,11,1.8,14
2014/3/10 6:08,0.9,14,0.9,11,2,14
2014/3/10 6:09,1,14,1,11,3,14
2014/3/10 6:10,1.1,14,1.1,11,3,15
2014/3/10 6:11,1.1,14,1.1,11,2.6,15
2014/3/10 6:12,1.3,14,1.3,12,4.1,14
2014/3/10 6:13,1.4,14,1.4,12,3.5,14
2014/3/10 6:14,1.4,14,1.5,12,1.8,1
2014/3/10 6:15,1.5,14,1.5,14,1,6
2014/3/10 6:16,1.5,14,1.5,14,1.3,8
2014/3/10 6:17,1.4,13,1.5,14,1.3,10
2014/3/10 6:18,1.4,13,1.4,14,1.4,10
2014/3/10 6:19,1.2,12,1.4,14,1.3,8
2014/3/10 6:20,1.1,11,1.2,14,1.4,4
2014/3/10 6:21,1.1,9,1.2,14,2,4
2014/3/10 6:22,0.9,7,1.1,14,2,8
2014/3/10 6:23,1,8,1,14,3,13
2014/3/10 6:24,1.1,9,1.1,14,2.2,10
2014/3/10 6:25,1.2,9,1.2,14,2.1,10
2014/3/10 6:26,1.2,9,1.2,14,2.1,9
2014/3/10 6:27,1.2,9,1.2,13,1.8,9
2014/3/10 6:28,1.2,9,1.2,13,2.5,8
2014/3/10 6:29,1.2,9,1.2,12,1,8
2014/3/10 6:30,1.3,9,1.3,9,2.2,16
2014/3/10 6:31,1.3,10,1.3,9,2.2,16
2014/3/10 6:32,1.2,11,1.3,9,1.3,2
2014/3/10 6:33,1.1,11,1.2,9,0.6,12
2014/3/10 6:34,0.9,11,1.1,9,0.6,12
2014/3/10 6:35,0.9,11,0.9,9,1.5,10
2014/3/10 6:36,0.8,11,0.9,9,1.8,10
2014/3/10 6:37,0.9,10,0.9,9,2.7,9
2014/3/10 6:38,1,10,1,9,4.2,10
2014/3/10 6:39,1.2,11,1.2,9,4.3,10
2014/3/10 6:40,1.2,10,1.3,10,3,9
2014/3/10 6:41,1.2,10,1.2,10,3.3,11
2014/3/10 6:42,1.3,11,1.3,11,3.1,11
2014/3/10 6:43,1.5,10,1.5,10,3.5,9
2014/3/10 6:44,1.7,10,1.7,10,3.9,11
2014/3/10 6:45,1.8,10,1.8,10,3.6,10
2014/3/10 6:46,1.8,10,1.8,10,3.2,8
2014/3/10 6:47,1.9,10,1.9,10,2.6,12
2014/3/10 6:48,1.9,11,1.9,10,3.3,12
2014/3/10 6:49,1.9,11,1.9,10,3.5,11
2014/3/10 6:50,1.9,11,1.9,10,2.7,14
2014/3/10 6:51,1.9,12,1.9,10,2.6,12
2014/3/10 6:52,1.9,11,1.9,10,3.9,11
2014/3/10 6:53,2,12,2,11,3.5,12
2014/3/10 6:54,1.9,12,2,11,3,12
2014/3/10 6:55,1.9,12,2,11,2.9,12
2014/3/10 6:56,2,12,2,11,3.2,11
2014/3/10 6:57,1.9,12,2,11,2.5,9
2014/3/10 6:58,1.8,12,1.9,11,2,12
2014/3/10 6:59,1.7,12,1.8,11,1.6,14
2014/3/10 7:00,1.7,12,1.7,11,2.7,9
2014/3/10 7:01,1.7,12,1.7,11,2.5,11
2014/3/10 7:02,1.6,12,1.7,11,2.9,14
2014/3/10 7:03,1.5,12,1.6,12,3,14
2014/3/10 7:04,1.5,12,1.5,12,2.1,11
2014/3/10 7:05,1.4,12,1.5,12,1.1,12
2014/3/10 7:06,1.2,12,1.4,12,1.4,9
2014/3/10 7:07,1.2,12,1.2,12,2.6,11
2014/3/10 7:08,1.2,12,1.2,12,2.4,11
2014/3/10 7:09,1.4,12,1.4,12,4.1,13
2014/3/10 7:10,1.5,12,1.5,12,3.6,13
2014/3/10 7:11,1.4,12,1.5,12,2.4,13
2014/3/10 7:12,1.5,12,1.5,12,3.6,9
2014/3/10 7:13,1.5,12,1.5,12,3.3,10
2014/3/10 7:14,1.5,12,1.5,12,3,13
2014/3/10 7:15,1.6,12,1.6,12,2.6,14
2014/3/10 7:16,1.6,12,1.6,12,1.6,10
2014/3/10 7:17,1.7,12,1.7,12,2.9,12
2014/3/10 7:18,1.7,12,1.7,12,2.2,12
2014/3/10 7:19,1.6,12,1.7,12,2.5,11
2014/3/10 7:20,1.6,12,1.7,12,3.2,15
2014/3/10 7:21,1.6,12,1.6,12,2.9,13
2014/3/10 7:22,1.6,12,1.6,12,3.6,11
2014/3/10 7:23,1.6,12,1.6,12,3.1,9
2014/3/10 7:24,1.5,12,1.6,12,2.5,9
2014/3/10 7:25,1.5,12,1.5,12,2.4,9
2014/3/10 7:26,1.6,12,1.6,12,2.7,12
2014/3/10 7:27,1.6,12,1.6,12,3.1,12
2014/3/10 7:28,1.7,12,1.7,12,4.1,12
2014/3/10 7:29,1.9,12,1.9,12,4.3,12
2014/3/10 7:30,1.9,11,1.9,12,3.2,13
2014/3/10 7:31,2,11,2,11,3,13
2014/3/10 7:32,2,12,2,11,2.7,12
2014/3/10 7:33,1.9,12,2,11,2.7,9
2014/3/10 7:34,2.1,12,2.1,12,3.6,13
2014/3/10 7:35,2.2,12,2.2,12,2.7,13
2014/3/10 7:36,2.3,12,2.3,12,3.7,11
2014/3/10 7:37,2.4,12,2.4,12,4.4,13
2014/3/10 7:38,2.3,12,2.4,12,3.6,10
2014/3/10 7:39,2.2,12,2.3,12,3.3,12
2014/3/10 7:40,2.1,12,2.2,12,2.9,10
2014/3/10 7:41,2.1,12,2.1,12,3.8,11
2014/3/10 7:42,2.1,11,2.2,12,3.8,10
2014/3/10 7:43,2.2,11,2.2,12,3.6,10
2014/3/10 7:44,2,11,2.2,12,2.5,11
2014/3/10 7:45,1.9,11,2,12,1.6,14
2014/3/10 7:46,1.8,11,1.9,12,3,8
2014/3/10 7:47,1.7,11,1.8,12,1.8,13
2014/3/10 7:48,1.6,11,1.6,12,3,11
2014/3/10 7:49,1.5,11,1.6,12,3.7,12
2014/3/10 7:50,1.5,11,1.5,11,3.1,11
2014/3/10 7:51,1.5,11,1.5,11,3.6,11
2014/3/10 7:52,1.4,11,1.5,11,2.9,9
2014/3/10 7:53,1.3,11,1.4,11,4.7,9
2014/3/10 7:54,1.4,11,1.4,11,3.9,11
2014/3/10 7:55,1.5,11,1.5,11,2.6,11
2014/3/10 7:56,1.6,11,1.6,11,4.7,12
2014/3/10 7:57,1.7,11,1.7,11,3.8,12
2014/3/10 7:58,1.8,11,1.8,11,3.9,9
2014/3/10 7:59,1.7,11,1.8,11,3,8
2014/3/10 8:00,1.8,11,1.8,11,3.5,10
2014/3/10 8:01,1.8,11,1.9,11,6.2,10
2014/3/10 8:02,1.8,11,1.8,11,3.3,10
2014/3/10 8:03,1.9,11,1.9,11,5.6,13
2014/3/10 8:04,1.9,11,1.9,11,4.3,11
2014/3/10 8:05,1.9,11,1.9,11,2.2,11
2014/3/10 8:06,1.9,11,1.9,11,5.2,9
2014/3/10 8:07,1.9,11,1.9,11,6.1,9
2014/3/10 8:08,2.1,11,2.1,11,5.6,9
2014/3/10 8:09,2.2,11,2.2,11,5.5,11
2014/3/10 8:10,2.4,11,2.4,11,5.7,9
2014/3/10 8:11,2.4,11,2.4,11,5.4,10
2014/3/10 8:12,2.5,11,2.5,11,5,10
2014/3/10 8:13,2.5,11,2.5,11,4.9,9
2014/3/10 8:14,2.6,11,2.6,11,5.6,9
2014/3/10 8:15,2.8,10,2.8,10,5.4,10
2014/3/10 8:16,2.8,10,2.9,10,4.4,8
2014/3/10 8:17,2.7,11,2.8,10,3.8,12
2014/3/10 8:18,2.6,11,2.7,10,4.4,12
2014/3/10 8:19,2.6,10,2.6,10,3.3,9
2014/3/10 8:20,2.5,10,2.6,10,3,13
2014/3/10 8:21,2.3,10,2.4,10,3.8,9
2014/3/10 8:22,2.3,10,2.3,10,4.2,10
2014/3/10 8:23,2.3,11,2.3,10,3.7,13
2014/3/10 8:24,2.1,11,2.3,10,3.3,9
2014/3/10 8:25,2,11,2.1,10,1.9,9
2014/3/10 8:26,1.9,11,1.9,10,2.9,12
2014/3/10 8:27,1.8,11,1.8,11,3.2,12
2014/3/10 8:28,1.9,11,1.9,11,4.4,14
2014/3/10 8:29,2,11,2,10,4.8,12
2014/3/10 8:30,2.1,12,2.1,10,3.6,12
2014/3/10 8:31,2.1,12,2.1,10,2.6,11
2014/3/10 8:32,2.1,12,2.1,10,4.9,12
2014/3/10 8:33,2.1,12,2.2,11,3.9,12
2014/3/10 8:34,2.3,13,2.3,12,5.6,13
2014/3/10 8:35,2.6,13,2.6,13,5,13
2014/3/10 8:36,2.8,13,2.8,13,6.2,14
2014/3/10 8:37,3,13,3,13,6.3,14
2014/3/10 8:38,3,13,3,13,4.8,14
2014/3/10 8:39,2.9,13,3,13,4.4,14
2014/3/10 8:40,2.9,13,2.9,13,3.5,12
2014/3/10 8:41,2.9,13,2.9,13,3.8,13
2014/3/10 8:42,2.9,13,2.9,13,5.2,15
2014/3/10 8:43,2.9,13,2.9,13,3.7,15
2014/3/10 8:44,2.9,13,2.9,13,4.9,13
2014/3/10 8:45,2.6,14,2.8,13,3.7,16
2014/3/10 8:46,2.5,14,2.6,13,3.1,15
2014/3/10 8:47,2.3,14,2.5,13,2.5,14
2014/3/10 8:48,2.2,14,2.3,13,2.7,12
2014/3/10 8:49,2.1,13,2.2,13,2.5,11
2014/3/10 8:50,2.1,13,2.1,13,2.9,12
2014/3/10 8:51,2.2,13,2.2,13,3.8,11
2014/3/10 8:52,2.1,13,2.2,13,3,12
2014/3/10 8:53,2.1,12,2.1,13,3.8,10
2014/3/10 8:54,2.1,12,2.1,13,4.3,9
2014/3/10 8:55,2,12,2.1,14,3.3,12
2014/3/10 8:56,1.9,11,2,14,1.9,14
2014/3/10 8:57,1.9,11,1.9,14,3,11
2014/3/10 8:58,1.9,11,1.9,14,2.9,11
2014/3/10 8:59,1.7,11,1.8,13,0.8,10
2014/3/10 9:00,1.6,10,1.7,13,1.6,11
2014/3/10 9:01,1.4,10,1.6,13,1.5,13
2014/3/10 9:02,1.3,11,1.4,13,1.1,15
2014/3/10 9:03,1.1,11,1.3,12,0.8,10
2014/3/10 9:04,0.9,11,1.1,12,1,1
2014/3/10 9:05,0.8,12,0.9,12,0.6,16
2014/3/10 9:06,0.8,12,0.8,11,2.9,15
2014/3/10 9:07,0.8,13,0.8,11,3,14
2014/3/10 9:08,0.8,14,0.8,11,3.2,16
2014/3/10 9:09,0.9,13,0.9,11,2.2,13
2014/3/10 9:10,1,13,1,10,3,12
2014/3/10 9:11,1.1,13,1.1,11,3.1,10
2014/3/10 9:12,1.2,13,1.2,11,2.7,10
2014/3/10 9:13,1.4,13,1.4,13,2.5,11
2014/3/10 9:14,1.5,13,1.5,13,3.9,10
2014/3/10 9:15,1.7,12,1.7,12,3.6,9
2014/3/10 9:16,1.7,11,1.7,12,2,9
2014/3/10 9:17,1.7,11,1.7,12,3.9,11
2014/3/10 9:18,1.8,11,1.8,11,3,10
2014/3/10 9:19,1.9,10,1.9,10,4.7,10
2014/3/10 9:20,2,10,2,10,4.5,9
2014/3/10 9:21,1.9,10,2,10,1.9,10
2014/3/10 9:22,1.9,10,1.9,10,5.6,10
2014/3/10 9:23,1.9,10,1.9,10,4.3,7
2014/3/10 9:24,2.1,10,2.1,10,5.6,10
2014/3/10 9:25,2,10,2.1,10,4.8,10
2014/3/10 9:26,2,10,2,10,3.6,9
2014/3/10 9:27,2.1,10,2.2,10,4.5,10
2014/3/10 9:28,2.2,10,2.2,10,5.8,9
2014/3/10 9:29,2.3,10,2.3,10,5,10
2014/3/10 9:30,2.2,10,2.3,10,4.3,10
2014/3/10 9:31,2.4,11,2.4,10,6.3,12
2014/3/10 9:32,2.7,11,2.7,11,6.5,10
2014/3/10 9:33,2.8,11,2.8,11,5.1,10
2014/3/10 9:34,2.7,10,2.8,11,6.3,9
2014/3/10 9:35,2.8,10,2.8,11,6.8,9
2014/3/10 9:36,2.9,10,3,10,4.3,10
2014/3/10 9:37,2.6,10,2.9,10,0.6,4
2014/3/10 9:38,2.5,10,2.6,10,1.1,15
2014/3/10 9:39,2.2,11,2.4,10,1.6,12
2014/3/10 9:40,2.2,11,2.2,10,2.7,14
2014/3/10 9:41,2.1,12,2.2,10,5.5,13
2014/3/10 9:42,1.8,12,2.1,10,2.4,9
2014/3/10 9:43,1.6,11,1.8,10,2.7,8
2014/3/10 9:44,1.5,11,1.6,10,2.9,5
2014/3/10 9:45,1.4,10,1.5,10,1.9,5
2014/3/10 9:46,1.2,7,1.3,10,1.3,8
2014/3/10 9:47,1.3,8,1.3,10,2.5,9
2014/3/10 9:48,1.4,8,1.4,11,4.4,8
2014/3/10 9:49,1.7,7,1.7,11,4.5,8
2014/3/10 9:50,1.7,7,1.8,12,4.2,7
2014/3/10 9:51,1.6,7,1.7,12,1.1,8
2014/3/10 9:52,1.5,7,1.6,12,1.8,4
2014/3/10 9:53,1.5,7,1.5,7,2.2,4
2014/3/10 9:54,1.6,7,1.6,7,3.7,4
2014/3/10 9:55,1.6,6,1.6,7,2.5,2
2014/3/10 9:56,1.6,5,1.6,7,2.5,5
2014/3/10 9:57,1.7,5,1.7,7,3,6
2014/3/10 9:58,1.7,5,1.7,7,2.1,6
2014/3/10 9:59,1.4,5,1.6,7,1,7
2014/3/10 10:00,1.2,4,1.3,7,1.1,4
2014/3/10 10:01,1.2,4,1.2,5,2,8
2014/3/10 10:02,1.2,5,1.2,5,1,11
2014/3/10 10:03,1.2,5,1.2,5,2.2,1
2014/3/10 10:04,1.1,4,1.2,5,3,2
2014/3/10 10:05,1,4,1.1,5,1.8,15
2014/3/10 10:06,1,3,1,5,2.6,15
2014/3/10 10:07,1.1,2,1.2,5,4.9,15
2014/3/10 10:08,1.2,2,1.2,5,2.7,12
2014/3/10 10:09,1.3,1,1.3,5,3.1,8
2014/3/10 10:10,1.4,5,1.4,4,2.5,7
2014/3/10 10:11,1.4,4,1.4,4,2.1,7
2014/3/10 10:12,1.6,3,1.6,3,5.1,3
2014/3/10 10:13,1.5,3,1.6,3,1.8,4
2014/3/10 10:14,1.5,3,1.5,3,4.3,13
2014/3/10 10:15,1.8,16,1.8,2,5.4,15
2014/3/10 10:16,1.9,13,1.9,14,4.2,14
2014/3/10 10:17,1.8,15,1.9,14,4.5,16
2014/3/10 10:18,2,16,2,16,8.4,16
2014/3/10 10:19,2.1,16,2.1,16,5,15
2014/3/10 10:20,2.2,16,2.2,16,4.8,15
2014/3/10 10:21,2.6,15,2.6,15,9,16
2014/3/10 10:22,2.9,15,2.9,15,6.7,16
2014/3/10 10:23,3.1,15,3.1,15,5.7,14
2014/3/10 10:24,3.1,14,3.2,14,3.7,10
2014/3/10 10:25,3.1,14,3.1,14,4.3,9
2014/3/10 10:26,3.2,13,3.2,14,5.4,9
2014/3/10 10:27,3.2,12,3.2,14,3.9,9
2014/3/10 10:28,3.2,11,3.3,12,6.1,8
2014/3/10 10:29,3.3,10,3.3,12,5.6,8
2014/3/10 10:30,3.3,10,3.3,12,4.7,8
2014/3/10 10:31,2.9,9,3.2,12,2.7,8
2014/3/10 10:32,2.6,9,2.9,12,4.1,9
2014/3/10 10:33,2.5,9,2.6,12,4.1,10
2014/3/10 10:34,2.5,9,2.5,12,2.9,10
2014/3/10 10:35,2.3,9,2.5,12,2.5,11
2014/3/10 10:36,2,9,2.3,12,1.8,6
2014/3/10 10:37,1.8,9,2,12,1.3,1
2014/3/10 10:38,1.5,9,1.8,11,0.9,10
2014/3/10 10:39,1.3,9,1.5,10,2.2,8
2014/3/10 10:40,1.2,10,1.3,10,2.2,14
2014/3/10 10:41,1.1,11,1.2,9,2.6,10
2014/3/10 10:42,1.1,11,1.1,9,3.3,8
2014/3/10 10:43,1.3,11,1.3,9,5.6,10
2014/3/10 10:44,1.5,11,1.5,9,6.1,9
2014/3/10 10:45,1.6,10,1.6,9,4.7,8
2014/3/10 10:46,1.8,11,1.8,9,3.3,9
2014/3/10 10:47,2.1,10,2.1,10,5.4,11
2014/3/10 10:48,2.2,10,2.2,10,4.5,8
2014/3/10 10:49,2.2,10,2.3,10,3.7,7
2014/3/10 10:50,2.2,10,2.2,10,1.5,14
2014/3/10 10:51,2.2,10,2.2,10,0.8,11
2014/3/10 10:52,2,10,2.2,10,1.4,4
2014/3/10 10:53,1.9,11,2,10,2.1,11
2014/3/10 10:54,1.6,11,1.9,10,1.5,13
2014/3/10 10:55,1.4,11,1.6,10,1.1,11
2014/3/10 10:56,1.2,11,1.4,10,1.3,3
2014/3/10 10:57,1,10,1.2,10,1.6,6